Погода в Кличеве

Погода в Кличеве : погода сейчас, прогноз погоды и архив. Всё, что Вы хотите узнать о погоде в Кличеве!

Хотите узнать прогноз погоды в Кличеве? Тогда Вам сюда: Погода в Кличеве

Поиск расширенной информации на нашем сайте:

Другие новости

Новости СМИ2

Главная страница сайта

Новости сайта

03.07.2017

Напоминаем, что на нашем специализированном сайте Метеоцентр.Азия вы можете получить высокодетализированные автоматические прогнозы погоды по пунктам России, СНГ и мира в авиационном формате (включающие направление и скорость ветра, видимость, явления погоды, количество и форму облачности, нижнюю и верхнюю границу облачности).


Погода в Кличеве - сегодня

Время (UTC), дата Ветер
(°,м/с) 
Видим.   Явления Облачность Т
(°С)
Тd
(°С)
f(%) Тe
(°С)
Pmin
(гПа)
dP
(гПа)
Po
(мм)
O2
(г/м3)
Тmin Tmax R s Состояние
почвы
09 18.10.17 220 (ЮЗ) 20000 м    ясно 
+15.9 +12.6 81 +21  1013.2  -0.6  746  282           
12 18.10.17 250 (З) 20000 м    9/9 900 м 
[Sc]
+17.9 +11.9 68 +22  1012.2  -0.8  746  280           
15 18.10.17 280 (З) 20000 м    8/0 верхняя 
[Cs]
+14 +11.7 86 +19  1012.5  746  284           
18 18.10.17 290 (З) 10 км    3/0 верхняя 
[Ci sp]
+10.2 +8.3 88 +10  1014  1.2  746  288    +17.9       
21 18.10.17 240 (ЮЗ) 4000 м  дымка  ясно 
+7.6 +6.9 95 +9  1014.7  0.5  747  292           
00 19.10.17 250 (З) 4000 м  дымка  ясно 
+7 +6.4 96 +8  1015.5  0.8  747  293           
03 19.10.17 тихо ()   4000 м  дымка  9/9 900 м 
[Sc]
+8.7 +8.1 96 +9  1016.1  0.7  748  291           
06 19.10.17 тихо ()   4000 м  дымка  9/9 900 м 
[Sc]
+9 +8.4 96 +9  1017.2  1.1  749  291  +6.1         
09 19.10.17 070 (В) 20000 м    8/8 840 м 
[Sc]
+11.3 +8 80 +12  1018.5  1.4  750  289           
12 19.10.17 060 (СВ) 20000 м    8/8 900 м 
[Sc]
+11.8 +5.7 66 +12  1018.8  0.3  750  289           
15 19.10.17 040 (СВ) 20000 м    6/6 840 м 
[Sc]
+8.6 +4.6 76 +10  1019.4  0.4  750  292           
18 19.10.17 040 (СВ) 4000 м  дымка  1/1 600 м 
[Sc]
+4.2 +2.7 90 +5  1020.7  751  298    +12.5       
21 19.10.17 010 (С) 4000 м  дымка  ясно 
+2.1 +1.6 96 +3  1022  1.3  752  300           
00 20.10.17 060 (СВ) 4000 м  дымка  ясно 
-1.8 -2.3 96 -1  1022.6  0.5  752  305           
03 20.10.17 030 (СВ) 4000 м  дымка  ясно 
-2 -2.6 96 -1  1022.9  0.3  753  306           
06 20.10.17 030 (СВ) 4000 м  дымка  ясно 
-0.7 -1 98 1024.1  0.8  753  304  -3.1         
09 20.10.17 090 (В) 20000 м    4/0 верхняя 
[Ci fib]
+9.7 +3.4 65 +11  1023.9  0.6  754  293           
12 20.10.17 070 (В) 20000 м    4/4 600 м 
[Sc]
+10.6 +1.1 52 +10  1022.7  -1.1  753  292           
15 20.10.17 тихо ()   20000 м    6/3 600 м верхняя 
[Sc|Cs]
+7.9 +0.6 60 +8  1022.5  -0.4  753  295           
18 20.10.17 тихо ()   10 км    4/0 верхняя 
[Ci fib]
+1.7 +0.1 89 +2  1023.6  0.6  753  302    +11.1       
21 20.10.17 тихо ()   4000 м  дымка  9/9 600 м средняя 
[Ac und]
+1.4 +0.7 95 +1  1023.1  -0.4  753  302           
00 21.10.17 тихо ()   4000 м  дымка  9/0 средняя 
[Ac und]
+3.4 +2.5 94 +3  1022.1  -0.8  752  299           
03 21.10.17 050 (СВ) 4000 м  дымка  8/8 900 м 
[Sc]
+3.9 +2.4 90 +5  1021.5  -0.6  752  298           
06 21.10.17 090 (В) 10 км    9/9 900 м 
[Sc]
+4 +2.2 88 +4  1021  -0.5  751  298  +1.2         
12 21.10.17 120 (ЮВ) 4000 м  слаб. ливневой дождь  10/10 420 м кучево-дожд. 
[Cb cap]
+5.3 +4.1 92 +5  1019.3  -1.4  750  296         
Время (UTC), дата Ветер
(°,м/с) 
Видим.   Явления Облачность Т
(°С)
Тd
(°С)
f(%) Тe
(°С)
Pmin
(гПа)
dP
(гПа)
Po
(мм)
O2
(г/м3)
Тmin Tmax R s Состояние
почвы

Для получения пояснительной информации подведите курсор к названию столбца.

ПОГОДА в Кличеве - архив

Всё, что Вы хотите узнать о погоде в Кличеве - удобно и подробно!

Выберите нужную дату (начиная с 1 января 2015* года) и нажмите кнопку "Найти".
Будут отображены архивные сводки погоды по пункту Кличев, начиная с указанной даты.


Отображать данные в формате CSV (для использования в таблицах Excel)


Внимание! Наш архив погоды предназначен исключительно для личного некоммерческого использования в познавательных целях. Если Вам необходимы официальные справки о состоянии погоды (для производственных, юридических, коммерческих и т.п. целей), обращайтесь в органы Росгидромета.

*Примечание: данная дата относится к архиву по метеостанциям СССР (Россия, СНГ, Балтия).
Архив по метеостанциям Зарубежной Европы и Азии (кроме Китая) хранится 10 дней, по другим регионам земного шара (Китай, Африка, Америка, Австралия, Океания) - 1 день.

Кличев - район местоположения метеостанции


Название, широта, долгота, высота метеостанции:
Кличев 53.5°ш. 29.3°д. 155 м над ур. моря [Беларусь]

Дополнительная информация

В oтличие oт бoльшинства пoгoдных сайтoв мы публикуем пoдрoбную метеoинфoрмацию в детальнoм прoфессиoнальнoм фoрмате.

Характеристики температуры и влажнoсти вoздуха измеряются на высoте 2 м в тени вдали oт зданий и деревьев.
Скoрoсть ветра измеряется на высoте 10 м (на урoвне рoста челoвека скoрoсть ветра ниже в 1.5-2 раза). Если метеoстанция нахoдится в гoрoде или в лесу, тo скoрoсть ветра занижена на 2-4 м/с пo сравнению с oткрытым местoм. Скoрoсть ветра над акватoриями крупных рек и oзёр, а также на вершинах хoлмoв на 2-5 м/с выше, чем в oбычных услoвиях.
Атмoсфернoе давление в разных тoчках местнoсти мoжет значительнo oтличаться oт давления на метеoстанции, в зависимoсти oт услoвий рельефа (при пoдъёме на 10 м давление пoнижается примернo на 1 мм рт.ст.).